Location: De Har
(53.3413°N, 6.6858°E)
Time: 09:02:44
(UTC+00:00)

Cosmos 1975 - Pass Details

Date: 22 April 2026
Orbit: 473 x 486 km, 82.5° (Epoch: 15 May)

Event Time Altitude Azimuth Distance (km) Brightness Sun altitude
Rises 02:04:39 0° 345° (NNW) 2,552 6.7 -16.8°
Reaches altitude 10° 02:06:47 10° 340° (NNW) 1,670 5.7 -16.6°
Maximum altitude 02:10:20 51° 264° (W) 614 2.7 -16.3°
Enters shadow 02:11:25 36° 212° (SSW) 779 3.0 -16.2°
